FW8061 Weather Reports


time (UTC)temp
C
wind
direction
speed
KPH
gust
KPH
rain 1hr
cm
rain 24hr
cm
rain mn
cm
humidity
%
barometer
mb
20260502203018 7 188 4.8 9.7 0.00 0.00 0.00 85 1011.8
20260502202019 7 175 3.2 9.7 0.00 0.00 0.00 84 1011.9
20260502201100 7 172 4.8 12.9 0.00 0.00 0.00 84 1012.0
20260502200019 7 154 3.2 8.0 0.00 0.00 0.00 83 1012.0
20260502195019 7 168 3.2 11.3 0.00 0.00 0.00 80 1012.0
20260502194019 7 185 4.8 8.0 0.00 0.00 0.00 83 1012.0
20260502193019 7 189 4.8 8.0 0.00 0.00 0.00 82 1012.0
20260502192020 7 183 4.8 9.7 0.00 0.00 0.00 85 1012.1
20260502191101 6 173 3.2 6.4 0.00 0.00 0.00 87 1012.1
20260502190019 6 167 3.2 8.0 0.00 0.00 0.00 87 1012.2
20260502185021 6 187 1.6 4.8 0.00 0.00 0.00 90 1012.3
20260502184020 6 320 1.6 4.8 0.00 0.00 0.00 91 1012.3
20260502183020 6 341 4.8 11.3 0.00 0.00 0.00 89 1012.3
20260502182017 7 323 8.0 16.1 0.00 0.00 0.00 85 1012.3
20260502181020 8 280 4.8 12.9 0.00 0.00 0.00 73 1011.9
20260502164039 7 317 1.6 3.2 0.00 0.00 0.00 76 1012.4
20260502163020 8 349 1.6 4.8 0.00 0.00 0.00 76 1012.4
20260502162019 7 298 1.6 4.8 0.00 0.00 0.00 77 1012.5
20260502161021 7 269 1.6 4.8 0.00 0.00 0.00 77 1012.6
20260502152038 6 168 1.6 6.4 0.00 0.00 0.00 82 1013.1
20260502151020 5 329 4.8 8.0 0.00 0.00 0.00 84 1013.2
20260502123041 3 350 1.6 3.2 0.00 0.00 0.00 87 1013.7
20260502122022 3 324 1.6 3.2 0.00 0.00 0.00 86 1013.7
20260502121021 3 357 3.2 4.8 0.00 0.00 0.00 86 1013.6
20260502115021 3 237 1.6 3.2 0.00 0.00 0.00 85 1013.6
20260502114121 3 315 1.6 3.2 0.00 0.00 0.00 85 1013.5
20260502113022 3 348 1.6 3.2 0.00 0.00 0.00 84 1013.4
20260502112025 3 346 3.2 3.2 0.00 0.00 0.00 84 1013.4
20260502111022 3 355 3.2 4.8 0.00 0.00 0.00 82 1013.3
20260502110022 3 351 3.2 4.8 0.00 0.00 0.00 81 1013.3
20260502105022 4 350 3.2 4.8 0.00 0.00 0.00 82 1013.3
20260502104022 4 346 3.2 3.2 0.00 0.00 0.00 81 1013.2
20260502103042 4 352 3.2 4.8 0.00 0.00 0.00 83 1013.2
20260502102023 4 349 3.2 3.2 0.00 0.00 0.00 82 1013.1
20260502101022 4 353 3.2 3.2 0.00 0.00 0.00 80 1013.0
20260502091023 4 234 1.6 1.6 0.00 0.00 0.00 79 1012.8
20260502071043 5 320 1.6 3.2 0.00 0.00 0.00 73 1012.4
20260502070023 6 271 1.6 3.2 0.00 0.00 0.00 72 1012.2
20260502065024 6 343 3.2 4.8 0.00 0.00 0.00 72 1012.1
20260502064024 6 333 3.2 4.8 0.00 0.00 0.00 71 1012.1
20260502063106 7 334 1.6 4.8 0.00 0.00 0.00 70 1012.0
20260502062025 7 350 4.8 6.4 0.00 0.00 0.00 67 1012.0
20260502061024 7 348 1.6 3.2 0.00 0.00 0.00 67 1011.9
20260502060025 7 342 0.0 3.2 0.00 0.00 0.00 68 1011.9
20260502055047 7 343 1.6 3.2 0.00 0.00 0.00 65 1012.0
20260502054027 7 347 3.2 3.2 0.00 0.00 0.00 64 1012.0
20260502053025 7 1 3.2 4.8 0.00 0.00 0.00 63 1012.0
20260502052025 8 354 3.2 6.4 0.00 0.00 0.00 64 1012.0
20260502051027 8 350 3.2 6.4 0.00 0.00 0.00 61 1011.9
20260502050025 8 307 1.6 4.8 0.00 0.00 0.00 59 1011.8
20260502045027 8 320 1.6 4.8 0.00 0.00 0.00 60 1011.8
20260502044026 7 219 3.2 3.2 0.00 0.00 0.00 60 1011.8
20260502043026 7 260 0.0 1.6 0.00 0.00 0.00 60 1011.8
20260502042047 7 311 1.6 3.2 0.00 0.00 0.00 60 1011.8
20260502041027 7 284 1.6 3.2 0.00 0.00 0.00 60 1011.8
20260502040027 7 233 1.6 3.2 0.00 0.00 0.00 60 1011.8
20260502035027 7 305 1.6 1.6 0.00 0.00 0.00 60 1011.8
20260502034030 7 307 1.6 3.2 0.00 0.00 0.00 61 1011.7
20260502033038 7 316 1.6 3.2 0.00 0.00 0.00 61 1011.7
20260502032020 7 222 1.6 3.2 0.00 0.00 0.00 62 1011.8
20260502031018 7 327 0.0 3.2 0.00 0.00 0.00 61 1011.8
20260502030038 7 279 0.0 3.2 0.00 0.00 0.00 62 1011.9
20260502025018 7 224 0.0 1.6 0.00 0.00 0.00 58 1011.8
20260502024019 8 322 1.6 3.2 0.00 0.00 0.00 58 1011.9
20260502023039 8 213 0.0 3.2 0.00 0.00 0.00 55 1011.9
20260502022020 8 231 1.6 3.2 0.00 0.00 0.00 54 1012.0
20260502021020 8 250 1.6 4.8 0.00 0.00 0.00 54 1012.0
20260502020019 8 322 1.6 3.2 0.00 0.00 0.00 53 1012.0
20260502015020 8 236 1.6 4.8 0.00 0.00 0.00 53 1012.0
20260502014019 8 296 1.6 4.8 0.00 0.00 0.00 52 1012.0
20260502013020 8 306 1.6 4.8 0.00 0.00 0.00 52 1012.0
20260502012020 9 293 1.6 4.8 0.00 0.00 0.00 51 1011.9
20260502011016 9 292 1.6 4.8 0.00 0.00 0.00 49 1011.8
20260502010020 9 312 3.2 8.0 0.00 0.00 0.00 47 1011.8
20260502005020 10 306 3.2 6.4 0.00 0.00 0.00 47 1011.8
20260502004018 10 303 4.8 8.0 0.00 0.00 0.00 47 1011.8
20260502003023 10 310 3.2 8.0 0.00 0.00 0.00 46 1011.7
20260502002018 10 305 3.2 6.4 0.00 0.00 0.00 46 1011.6
20260502001019 10 307 4.8 9.7 0.00 0.00 0.00 46 1011.4
20260502000021 10 298 3.2 8.0 0.00 0.00 0.00 48 1011.3
20260501235019 10 307 4.8 8.0 0.00 0.00 0.00 48 1011.2
20260501234019 10 232 4.8 9.7 0.00 0.00 0.00 47 1011.2
20260501233018 10 205 4.8 9.7 0.00 0.00 0.00 46 1011.1
20260501232018 11 238 3.2 8.0 0.00 0.00 0.00 47 1011.1
20260501231019 11 294 4.8 12.9 0.00 0.00 0.00 46 1011.0
20260501230039 11 271 4.8 11.3 0.00 0.00 0.00 46 1010.8
20260501225019 11 227 4.8 11.3 0.00 0.00 0.00 45 1010.8
20260501224019 11 283 4.8 14.5 0.00 0.00 0.00 44 1010.8
20260501223016 11 323 8.0 14.5 0.00 0.00 0.00 41 1010.7
20260501222020 11 305 8.0 16.1 0.00 0.00 0.00 39 1010.7
20260501221021 11 265 6.4 19.3 0.00 0.00 0.00 40 1010.7
20260501215020 11 301 4.8 14.5 0.00 0.00 0.00 40 1010.6
20260501214017 11 311 6.4 12.9 0.00 0.00 0.00 39 1010.5
20260501213021 12 312 6.4 14.5 0.00 0.00 0.00 39 1010.5
20260501212038 12 312 4.8 11.3 0.00 0.00 0.00 38 1010.4
20260501211018 12 268 4.8 11.3 0.00 0.00 0.00 38 1010.5
20260501210022 12 284 8.0 19.3 0.00 0.00 0.00 38 1010.5
20260501205021 13 312 6.4 14.5 0.00 0.00 0.00 39 1010.6
20260501204018 12 282 4.8 12.9 0.00 0.00 0.00 38 1010.5